sat.trackr.live / text

‹ back to catalog

MAKERSAT 0

NORAD 43016 · 2017-073D

PAYLOAD ACTIVE UNKNOWN

§ Identity

Operator
Country
US
Launch date
2017-11-18
Launch site
AFWTR
Launch vehicle
Mass (kg)
RCS (m²)

Purposes: tech_demo

External: N2YO · Heavens-Above · Gunter

§ Orbital elements

Epoch: 2026-09-04T03:17:33.869184Z

Period
93.81 min
Inclination
97.4485°
Eccentricity
0.0099903
Mean motion
15.35042463 rev/d
Perigee alt
392.5 km
Apogee alt
529.1 km
Semi-major
6,838.9 km
B*
4.1241e-4
RAAN
130.3664°
Arg perigee
352.7695°
Mean anomaly
7.2100°
Rev number
47,856

§ Raw data

MAKERSAT 01 43016U 17073D   26247.13719756  .00016454  00000+0  41241-3 0  99962 43016  97.4485 130.3664 0099903 352.7695   7.2100 15.35042463478566

JSON: /api/v1/satellites/43016 · /tle

For live sub-satellite position, see the globe view (requires WebGL).

§ Visibility from observer

Set your observer location to see the next 7 days of passes ≥ 10°. The values pass through the URL so the page stays shareable.

No JS? Fill the form by hand. The geolocation button needs JavaScript.